Wray, CO

7:53 AM MST on January 23, 2017 (GMT -0700)
Wray Municipal Airport

Weather History for K2V5 - January, 2014

Change the Weather History Date:

Wednesday, January 29, 2014

  Actual Average (KSYF) Record (KSYF)
Temperature  
Mean Temperature 33 °F -  
Max Temperature 57 °F 44 °F 56 °F (2016)
Min Temperature 9 °F 17 °F 10 °F (2014)
Degree Days  
Heating Degree Days 32    
Moisture  
Dew Point 11 °F    
Average Humidity 43    
Maximum Humidity 83    
Minimum Humidity 13    
Precipitation  
Precipitation 0.00 in - - ()
Sea Level Pressure  
Sea Level Pressure 29.78 in    
Wind  
Wind Speed 10 mph (SW)    
Max Wind Speed 17 mph    
Max Gust Speed 24 mph    
Visibility 10 miles    
Events      
Averages and records for this station are not official NWS values.
T = Trace of Precipitation, MM = Missing Value Source: NWS Daily Summary

Daily Weather History Graph

Daily Weather History Graph

Search for Another Location

Airport or City:

Trip Planner

Search our weather history database for the weather conditions in past years. The results will help you decide how hot, cold, wet, or windy it might be!

Date:

Astronomy

Jan. 29, 2014 Rise Set
Actual Time 7:00 AM MST 5:04 PM MST
Civil Twilight 6:31 AM MST 5:33 PM MST
Nautical Twilight 5:58 AM MST 6:05 PM MST
Astronomical Twilight 5:26 AM MST 6:37 PM MST
Moon 5:38 AM MST (1/29) 4:06 PM MST (1/29)
Length of Visible Light 11h 01m
Length of Day
10h 04m
Waning Crescent, 2% of the Moon is Illuminated
Jan 29
Waning Crescent
Jan 30
New
Feb 6
First Quarter
Feb 14
Full
Feb 22
Last Quarter

Hourly Weather History & Observations

Time (MST) Temp. Windchill Dew Point Humidity Pressure Visibility Wind Dir Wind Speed Gust Speed Precip Events Conditions
12:15 AM 15.1 °F 4.2 °F 6.1 °F 68% 30.03 in 10.0 mi West 8.1 mph - N/A   Clear
12:35 AM 14.4 °F 2.4 °F 6.1 °F 70% 30.03 in 10.0 mi West 9.2 mph - N/A   Clear
12:55 AM 15.6 °F 5.9 °F 6.3 °F 67% 30.02 in 10.0 mi WSW 6.9 mph - N/A   Clear
1:15 AM 15.4 °F 6.8 °F 6.4 °F 68% 30.01 in 10.0 mi WSW 5.8 mph - N/A   Clear
1:35 AM 16.3 °F 4.9 °F 7.3 °F 68% 30.00 in 10.0 mi WSW 9.2 mph - N/A   Clear
1:55 AM 19.4 °F 7.9 °F 9.0 °F 64% 29.99 in 10.0 mi SW 10.4 mph - N/A   Clear
2:15 AM 18.5 °F 7.5 °F 8.6 °F 65% 29.99 in 10.0 mi SW 9.2 mph - N/A   Clear
2:35 AM 16.5 °F 3.6 °F 7.7 °F 68% 29.98 in 10.0 mi SW 11.5 mph - N/A   Clear
2:55 AM 14.0 °F 2.9 °F 7.0 °F 74% 29.98 in 10.0 mi West 8.1 mph - N/A   Clear
3:15 AM 12.7 °F -1.1 °F 6.8 °F 77% 29.97 in 10.0 mi WSW 11.5 mph - N/A   Clear
3:35 AM 11.7 °F -1.7 °F 5.9 °F 78% 29.96 in 10.0 mi WSW 10.4 mph - N/A   Clear
3:55 AM 11.7 °F 0.0 °F 5.5 °F 76% 29.96 in 10.0 mi West 8.1 mph - N/A   Clear
4:15 AM 11.3 °F 1.9 °F 5.4 °F 77% 29.95 in 10.0 mi WSW 5.8 mph - N/A   Clear
4:35 AM 10.9 °F 0.2 °F 5.4 °F 78% 29.95 in 10.0 mi WSW 6.9 mph - N/A   Clear
4:55 AM 11.3 °F 3.3 °F 6.4 °F 81% 29.95 in 10.0 mi WSW 4.6 mph - N/A   Clear
5:15 AM 10.9 °F 2.9 °F 5.9 °F 80% 29.95 in 10.0 mi WSW 4.6 mph - N/A   Clear
5:35 AM 10.6 °F 1.0 °F 6.3 °F 83% 29.94 in 10.0 mi WSW 5.8 mph - N/A   Clear
5:55 AM 9.5 °F -1.5 °F 5.4 °F 83% 29.95 in 10.0 mi West 6.9 mph - N/A   Clear
6:15 AM 11.8 °F 2.5 °F 6.8 °F 80% 29.95 in 10.0 mi West 5.8 mph - N/A   Clear
6:35 AM 13.1 °F 2.8 °F 7.7 °F 79% 29.94 in 10.0 mi WSW 6.9 mph - N/A   Clear
7:35 AM 12.9 °F 3.8 °F 7.3 °F 78% 29.94 in 10.0 mi WSW 5.8 mph - N/A   Clear
7:55 AM 15.4 °F 5.6 °F 8.4 °F 74% 29.93 in 10.0 mi West 6.9 mph - N/A   Clear
8:15 AM 19.4 °F 8.6 °F 9.3 °F 65% 29.94 in 10.0 mi WSW 9.2 mph - N/A   Clear
8:35 AM 21.0 °F 14.6 °F 10.4 °F 64% 29.93 in 10.0 mi WSW 4.6 mph - N/A   Clear
8:55 AM 24.3 °F 13.9 °F 11.8 °F 59% 29.92 in 10.0 mi SW 10.4 mph - N/A   Clear
9:15 AM 29.3 °F 23.2 °F 11.8 °F 48% 29.92 in 10.0 mi WSW 5.8 mph - N/A   Clear
9:35 AM 32.9 °F 27.5 °F 12.2 °F 42% 29.92 in 10.0 mi WSW 5.8 mph - N/A   Clear
9:55 AM 38.1 °F 33.7 °F 11.7 °F 34% 29.92 in 10.0 mi WSW 5.8 mph - N/A   Clear
10:15 AM 42.1 °F 37.7 °F 12.0 °F 29% 29.92 in 10.0 mi WSW 6.9 mph - N/A   Clear
10:35 AM 46.6 °F - 11.3 °F 24% 29.91 in 10.0 mi SW 9.2 mph - N/A   Clear
10:55 AM 50.2 °F - 5.4 °F 16% 29.90 in 10.0 mi SW 12.7 mph - N/A   Unknown
11:15 AM 51.3 °F - 5.5 °F 16% 29.89 in 10.0 mi SW 12.7 mph - N/A   Unknown
11:35 AM 53.6 °F - 3.0 °F 13% 29.87 in 10.0 mi SSW 13.8 mph 18.4 mph N/A   Unknown
11:55 AM 54.5 °F - 3.2 °F 13% 29.85 in 10.0 mi SSW 15.0 mph 19.6 mph N/A   Unknown
12:15 PM 54.7 °F - 5.9 °F 14% 29.84 in 10.0 mi SW 16.1 mph 20.7 mph N/A   Clear
12:35 PM 55.0 °F - 4.8 °F 13% 29.82 in 10.0 mi SW 16.1 mph 20.7 mph N/A   Clear
12:55 PM 56.5 °F - 7.0 °F 14% 29.81 in 10.0 mi SSW 16.1 mph 21.9 mph N/A   Clear
1:15 PM 57.0 °F - 8.8 °F 15% 29.78 in 10.0 mi SSW 16.1 mph 21.9 mph N/A   Clear
1:35 PM 56.7 °F - 7.7 °F 14% 29.77 in 10.0 mi SSW 13.8 mph 24.2 mph N/A   Clear
1:55 PM 56.5 °F - 7.2 °F 14% 29.76 in 10.0 mi SW 17.3 mph 23.0 mph N/A   Clear
2:15 PM 57.4 °F - 8.6 °F 14% 29.75 in 10.0 mi SSW 16.1 mph 21.9 mph N/A   Clear
2:35 PM 57.2 °F - 9.0 °F 15% 29.74 in 10.0 mi SW 16.1 mph 19.6 mph N/A   Clear
2:55 PM 57.0 °F - 8.6 °F 15% 29.73 in 10.0 mi SSW 16.1 mph - N/A   Clear
3:15 PM 56.8 °F - 7.9 °F 14% 29.72 in 10.0 mi SSW 17.3 mph 23.0 mph N/A   Clear
3:35 PM 55.6 °F - 6.4 °F 14% 29.71 in 10.0 mi SW 16.1 mph 21.9 mph N/A   Clear
3:55 PM 54.7 °F - 6.6 °F 15% 29.69 in 10.0 mi SSW 17.3 mph 23.0 mph N/A   Clear
4:15 PM 51.8 °F - 9.0 °F 18% 29.69 in 10.0 mi SSW 9.2 mph 17.3 mph N/A   Clear
4:35 PM 50.7 °F - 11.3 °F 21% 29.67 in 10.0 mi SSW 9.2 mph 18.4 mph N/A   Clear
4:55 PM 48.2 °F - 12.2 °F 24% 29.65 in 10.0 mi South 13.8 mph 17.3 mph N/A   Clear
5:15 PM 46.4 °F 41.9 °F 14.0 °F 27% 29.64 in 10.0 mi South 9.2 mph - N/A   Clear
5:35 PM 44.8 °F 39.4 °F 14.7 °F 30% 29.63 in 10.0 mi SSW 10.4 mph - N/A   Clear
5:55 PM 43.7 °F 37.7 °F 15.8 °F 33% 29.62 in 10.0 mi SSW 11.5 mph 19.6 mph N/A   Clear
6:15 PM 42.8 °F 36.2 °F 16.5 °F 35% 29.62 in 10.0 mi SSW 12.7 mph - N/A   Clear
6:35 PM 42.3 °F 36.8 °F 16.5 °F 35% 29.61 in 10.0 mi SW 9.2 mph - N/A   Mostly Cloudy
6:55 PM 42.1 °F 34.9 °F 17.4 °F 37% 29.60 in 10.0 mi SW 13.8 mph - N/A   Overcast
7:15 PM 42.1 °F 35.7 °F 17.1 °F 37% 29.58 in 10.0 mi SSW 11.5 mph - N/A   Overcast
7:35 PM 42.8 °F 36.6 °F 16.7 °F 35% 29.56 in 10.0 mi SSW 11.5 mph - N/A   Overcast
7:55 PM 42.8 °F 37.5 °F 17.1 °F 36% 29.54 in 10.0 mi SW 9.2 mph - N/A   Overcast
8:15 PM 43.5 °F 38.3 °F 16.7 °F 34% 29.52 in 10.0 mi SW 9.2 mph - N/A   Overcast
8:35 PM 44.1 °F 37.4 °F 16.5 °F 33% 29.51 in 10.0 mi SW 13.8 mph 19.6 mph N/A   Overcast
8:55 PM 44.1 °F 38.1 °F 16.7 °F 33% 29.49 in 10.0 mi SW 11.5 mph 17.3 mph N/A   Overcast
9:15 PM 44.4 °F 38.6 °F 16.7 °F 33% 29.48 in 10.0 mi SSW 11.5 mph - N/A   Overcast
9:35 PM 43.9 °F 37.9 °F 17.1 °F 34% 29.47 in 10.0 mi SW 11.5 mph - N/A   Mostly Cloudy
9:55 PM 43.7 °F 38.6 °F 16.7 °F 34% 29.46 in 10.0 mi WSW 9.2 mph - N/A   Overcast
10:15 PM 44.4 °F 40.0 °F 16.9 °F 33% 29.46 in 10.0 mi WSW 8.1 mph 16.1 mph N/A   Overcast
10:35 PM 43.3 °F 37.2 °F 18.3 °F 37% 29.45 in 10.0 mi SW 11.5 mph - N/A   Overcast
10:55 PM 42.8 °F 36.6 °F 19.2 °F 39% 29.44 in 10.0 mi WSW 11.5 mph - N/A   Overcast
11:15 PM 41.9 °F 36.3 °F 19.8 °F 41% 29.42 in 10.0 mi SW 9.2 mph - N/A   Scattered Clouds
11:35 PM 41.2 °F 35.5 °F 20.3 °F 43% 29.42 in 10.0 mi WSW 9.2 mph - N/A   Mostly Cloudy
11:55 PM 41.0 °F 35.2 °F 20.8 °F 45% 29.40 in 10.0 mi WSW 9.2 mph - N/A   Overcast